[keps] orb08157.amsat

Ray Hoad r.hoad at att.net
Thu Jun 5 20:37:06 PDT 2008


SB KEPS @ AMSAT  $ORB08157.O
Orbital Elements  08157.OSCAR

HR AMSAT ORBITAL ELEMENTS FOR OSCAR SATELLITES
FROM WA5QGD FORT WORTH,TX June 5, 2008
Send Subscribe/unsubscribe to KEPS at 
http://www.amsat.org/mailman/listinfo/keps
BID: ORB08157.O
TO ALL RADIO AMATEURS BT

Satellite: AO-07
Catalog number: 07530
Epoch time:      08156.92356846
Element set:    0195
Inclination:      101.4674 deg
RA of node:       188.8315 deg
Eccentricity:    0.0011468
Arg of perigee:   285.8347 deg
Mean anomaly:     074.1451 deg
Mean motion:   12.53573663 rev/day
Decay rate:       -2.7e-07 rev/day^2
Epoch rev:           53544
Checksum:              319

Satellite: AO-10
Catalog number: 14129
Epoch time:      08156.12216747
Element set:    0514
Inclination:      025.9551 deg
RA of node:       212.0985 deg
Eccentricity:    0.5988474
Arg of perigee:   129.1879 deg
Mean anomaly:     301.2481 deg
Mean motion:   02.05870739 rev/day
Decay rate:      -1.91e-06 rev/day^2
Epoch rev:           18783
Checksum:              323

Satellite: UO-11
Catalog number: 14781
Epoch time:      08157.28372152
Element set:     687
Inclination:      098.1534 deg
RA of node:       191.1389 deg
Eccentricity:    0.0010147
Arg of perigee:   109.8370 deg
Mean anomaly:     250.3932 deg
Mean motion:   14.79647410 rev/day
Decay rate:       2.88e-06 rev/day^2
Epoch rev:           30209
Checksum:              307

Satellite: RS-15
Catalog number: 23439
Epoch time:      08156.95169828
Element set:    0127
Inclination:      064.8147 deg
RA of node:       154.8318 deg
Eccentricity:    0.0147686
Arg of perigee:   125.2544 deg
Mean anomaly:     236.2301 deg
Mean motion:   11.27552075 rev/day
Decay rate:       -3.9e-07 rev/day^2
Epoch rev:           55358
Checksum:              322

Satellite: FO-29
Catalog number: 24278
Epoch time:      08156.84499839
Element set:    0792
Inclination:      098.5871 deg
RA of node:       074.7478 deg
Eccentricity:    0.0349754
Arg of perigee:   247.4867 deg
Mean anomaly:     108.8900 deg
Mean motion:   13.52937159 rev/day
Decay rate:       -6.4e-07 rev/day^2
Epoch rev:           58272
Checksum:              388

Satellite: SO-33
Catalog number: 25509
Epoch time:      08157.65620749
Element set:     211
Inclination:      031.4348 deg
RA of node:       021.5531 deg
Eccentricity:    0.0355410
Arg of perigee:   286.3100 deg
Mean anomaly:     069.8743 deg
Mean motion:   14.28214887 rev/day
Decay rate:       -1.3e-07 rev/day^2
Epoch rev:           50196
Checksum:              288

Satellite: AO-40
Catalog number: 26609
Epoch time:      08156.86734391
Element set:      70
Inclination:      007.5812 deg
RA of node:       079.2760 deg
Eccentricity:    0.7915103
Arg of perigee:   088.1125 deg
Mean anomaly:     350.1165 deg
Mean motion:   01.25583596 rev/day
Decay rate:      -1.13e-06 rev/day^2
Epoch rev:            3488
Checksum:              304

Satellite: VO-52
Catalog number: 28650
Epoch time:      08157.65401829
Element set:     948
Inclination:      097.7904 deg
RA of node:       224.5807 deg
Eccentricity:    0.0027327
Arg of perigee:   175.8229 deg
Mean anomaly:     184.3204 deg
Mean motion:   14.81469974 rev/day
Decay rate:        6.1e-07 rev/day^2
Epoch rev:           16689
Checksum:              347

Satellite: PO-63
Catalog number: 29712
Epoch time:      08157.73201825
Element set:     506
Inclination:      097.8751 deg
RA of node:       216.1330 deg
Eccentricity:    0.0015504
Arg of perigee:   060.6242 deg
Mean anomaly:     299.6507 deg
Mean motion:   14.80172730 rev/day
Decay rate:       5.37e-06 rev/day^2
Epoch rev:            7577
Checksum:              300

/EX
SB KEPS @ AMSAT  $ORB08157.D
Orbital Elements  08157.MICROS

HR AMSAT ORBITAL ELEMENTS FOR THE MICROSATS
FROM WA5QGD FORT WORTH,TX June 5, 2008
Send Subscribe/unsubscribe to KEPS at 
http://www.amsat.org/mailman/listinfo/keps
BID: ORB08157.D
TO ALL RADIO AMATEURS BT

Satellite: AO-16
Catalog number: 20439
Epoch time:      08157.54016542
Element set:     337
Inclination:      098.2287 deg
RA of node:       138.1982 deg
Eccentricity:    0.0010172
Arg of perigee:   208.1411 deg
Mean anomaly:     151.9234 deg
Mean motion:   14.31795181 rev/day
Decay rate:        4.0e-08 rev/day^2
Epoch rev:           95925
Checksum:              293

Satellite: LO-19
Catalog number: 20442
Epoch time:      08156.61120838
Element set:    0265
Inclination:      098.1990 deg
RA of node:       145.8924 deg
Eccentricity:    0.0011306
Arg of perigee:   208.3966 deg
Mean anomaly:     151.6601 deg
Mean motion:   14.32033510 rev/day
Decay rate:        2.2e-07 rev/day^2
Epoch rev:           95927
Checksum:              287

Satellite: AO-27
Catalog number: 22825
Epoch time:      08157.50946555
Element set:     985
Inclination:      098.3826 deg
RA of node:       117.9698 deg
Eccentricity:    0.0007717
Arg of perigee:   300.0718 deg
Mean anomaly:     059.9703 deg
Mean motion:   14.29239776 rev/day
Decay rate:       -9.6e-07 rev/day^2
Epoch rev:           76610
Checksum:              358

Satellite: IO-26
Catalog number: 22826
Epoch time:      08156.44561598
Element set:    0692
Inclination:      098.3758 deg
RA of node:       117.8609 deg
Eccentricity:    0.0008170
Arg of perigee:   298.9972 deg
Mean anomaly:     061.0393 deg
Mean motion:   14.29488833 rev/day
Decay rate:       -1.0e-07 rev/day^2
Epoch rev:           76604
Checksum:              349

Satellite: PO-28
Catalog number: 22829
Epoch time:      08157.48778040
Element set:     961
Inclination:      098.3635 deg
RA of node:       119.9700 deg
Eccentricity:    0.0008794
Arg of perigee:   266.1328 deg
Mean anomaly:     093.8864 deg
Mean motion:   14.30190105 rev/day
Decay rate:       -5.0e-07 rev/day^2
Epoch rev:           76645
Checksum:              332

Satellite: GO-32
Catalog number: 25397
Epoch time:      08156.66619993
Element set:    0617
Inclination:      098.3637 deg
RA of node:       192.4467 deg
Eccentricity:    0.0000441
Arg of perigee:   312.3983 deg
Mean anomaly:     047.7148 deg
Mean motion:   14.23143451 rev/day
Decay rate:      -1.48e-06 rev/day^2
Epoch rev:           51443
Checksum:              321

Satellite: NO-44
Catalog number: 26931
Epoch time:      08157.74160729
Element set:     895
Inclination:      067.0525 deg
RA of node:       314.1412 deg
Eccentricity:    0.0006595
Arg of perigee:   275.7117 deg
Mean anomaly:     084.3261 deg
Mean motion:   14.29523786 rev/day
Decay rate:       -8.9e-07 rev/day^2
Epoch rev:           34877
Checksum:              333

Satellite: SO-50
Catalog number: 27607
Epoch time:      08157.31595550
Element set:     620
Inclination:      064.5590 deg
RA of node:       089.6912 deg
Eccentricity:    0.0085433
Arg of perigee:   281.6998 deg
Mean anomaly:     077.4526 deg
Mean motion:   14.71359839 rev/day
Decay rate:       -4.6e-07 rev/day^2
Epoch rev:           29322
Checksum:              340

Satellite: CO-55
Catalog number: 27844
Epoch time:      08157.60395762
Element set:     321
Inclination:      098.7145 deg
RA of node:       166.0316 deg
Eccentricity:    0.0010312
Arg of perigee:   144.3716 deg
Mean anomaly:     215.8147 deg
Mean motion:   14.20582458 rev/day
Decay rate:        5.0e-07 rev/day^2
Epoch rev:           25579
Checksum:              301

Satellite: CO-57
Catalog number: 27848
Epoch time:      08157.60048604
Element set:     272
Inclination:      098.7157 deg
RA of node:       165.1267 deg
Eccentricity:    0.0010035
Arg of perigee:   147.8982 deg
Mean anomaly:     212.2798 deg
Mean motion:   14.20391133 rev/day
Decay rate:        4.5e-07 rev/day^2
Epoch rev:           25576
Checksum:              317

Satellite: AO-51
Catalog number: 28375
Epoch time:      08156.61614073
Element set:    0117
Inclination:      098.0712 deg
RA of node:       181.8929 deg
Eccentricity:    0.0083113
Arg of perigee:   190.5535 deg
Mean anomaly:     169.3917 deg
Mean motion:   14.40609685 rev/day
Decay rate:        2.0e-07 rev/day^2
Epoch rev:           20659
Checksum:              311

Satellite: CO-56
Catalog number: 28941
Epoch time:      08156.79653148
Element set:    0113
Inclination:      098.1067 deg
RA of node:       265.8048 deg
Eccentricity:    0.0167983
Arg of perigee:   086.4001 deg
Mean anomaly:     275.6415 deg
Mean motion:   15.56771267 rev/day
Decay rate:     2.4361e-04 rev/day^2
Epoch rev:           12811
Checksum:              334

Satellite: CP4
Catalog number: 31122
Epoch time:      08156.64728682
Element set:     354
Inclination:      098.0436 deg
RA of node:       222.7037 deg
Eccentricity:    0.0085350
Arg of perigee:   008.7364 deg
Mean anomaly:     351.5283 deg
Mean motion:   14.55130622 rev/day
Decay rate:       5.51e-06 rev/day^2
Epoch rev:            6025
Checksum:              279

Satellite: CP3
Catalog number: 31128
Epoch time:      08156.65512114
Element set:    0349
Inclination:      098.0393 deg
RA of node:       220.6217 deg
Eccentricity:    0.0103247
Arg of perigee:   014.3950 deg
Mean anomaly:     346.0142 deg
Mean motion:   14.51949796 rev/day
Decay rate:       -4.7e-07 rev/day^2
Epoch rev:           06011
Checksum:              275

/EX
SB KEPS @ AMSAT  $ORB08157.W
Orbital Elements  08157.WEATHER

HR AMSAT ORBITAL ELEMENTS FOR WEATHER SATELLITES
FROM WA5QGD FORT WORTH,TX June 5, 2008
Send Subscribe/unsubscribe to KEPS at 
http://www.amsat.org/mailman/listinfo/keps
BID: ORB08157.W
TO ALL RADIO AMATEURS BT

Satellite: NOAA-10
Catalog number: 16969
Epoch time:      08156.60686956
Element set:    0148
Inclination:      098.7220 deg
RA of node:       178.6017 deg
Eccentricity:    0.0011646
Arg of perigee:   215.0144 deg
Mean anomaly:     145.0274 deg
Mean motion:   14.27360504 rev/day
Decay rate:       -8.9e-07 rev/day^2
Epoch rev:           12964
Checksum:              310

